Total_Precipitation_Accumulation
2.82 3.20 3.80 3.28 2.70 2.55 2.62 2.55 2.40 2.25 2.12 2.13 2.08 1.95 1.72 1.51 1.40 1.34 1.27 1.20 1.11 1.10 1.09 1.14 1.16 1.12 1.25 1.43 1.52 1.56 1.60 1.70 1.90 2.20 2.38 2.38 2.48 2.63 2.87 3.06 2.87 2.18 2.09
2.25 2.75 3.29 2.98 2.44 2.30 2.28 2.36 2.26 2.12 2.14 2.13 2.15 1.96 1.78 1.65 1.47 1.33 1.20 1.11 1.10 1.09 1.00 1.01 1.08 1.04 1.11 1.26 1.41 1.45 1.59 1.87 2.35 2.84 3.03 2.77 2.78 2.89 2.96 2.91 2.78 2.24 2.03
1.78 2.05 2.39 2.52 2.29 2.12 1.99 2.10 2.11 2.01 1.97 1.95 1.92 1.80 1.77 1.66 1.39 1.20 1.12 1.12 1.16 1.12 0.98 1.01 1.04 0.99 1.09 1.26 1.36 1.38 1.62 2.08 2.77 3.56 3.72 3.00 2.63 2.92 2.98 2.81 2.48 2.06 1.83
1.44 1.81 1.86 2.15 2.08 1.95 1.88 1.96 1.91 1.83 1.75 1.82 1.73 1.63 1.61 1.60 1.35 1.09 1.03 1.05 1.04 1.01 0.99 1.04 1.05 1.07 1.07 1.16 1.27 1.51 1.82 2.11 2.76 3.33 3.28 2.45 2.07 2.36 2.59 2.26 2.01 1.83 1.60
1.34 1.62 1.90 2.01 1.84 1.77 1.68 1.73 1.69 1.65 1.66 1.75 1.65 1.56 1.47 1.40 1.25 1.06 0.97 0.98 0.97 0.98 0.95 0.99 1.11 1.14 1.10 1.13 1.29 1.60 1.97 2.33 2.76 2.91 2.39 2.57 2.48 2.24 2.11 1.94 1.81 1.57 1.35
1.13 1.23 1.59 1.75 1.63 1.63 1.54 1.48 1.58 1.61 1.65 1.69 1.62 1.48 1.49 1.43 1.34 1.12 0.97 0.95 0.98 1.03 1.04 1.06 1.19 1.21 1.10 1.10 1.29 1.64 1.99 2.44 2.55 1.92 1.55 1.94 1.96 1.94 1.90 1.83 1.66 1.47 1.34
1.05 1.12 1.34 1.62 1.52 1.47 1.43 1.38 1.48 1.55 1.56 1.53 1.53 1.36 1.41 1.41 1.30 1.12 1.01 0.96 0.91 0.98 1.08 1.12 1.18 1.18 1.14 1.19 1.32 1.63 2.05 2.37 2.13 1.51 1.32 1.61 1.55 1.62 1.80 1.82 1.74 1.50 1.30
1.03 1.05 1.29 1.58 1.54 1.46 1.43 1.43 1.54 1.59 1.46 1.40 1.40 1.28 1.27 1.30 1.26 1.19 1.09 1.05 0.94 0.97 1.11 1.16 1.15 1.11 1.14 1.27 1.46 1.64 2.05 2.01 1.53 1.36 1.27 1.34 1.15 1.46 1.70 1.67 1.57 1.42 1.24
1.36 1.32 1.37 1.41 1.45 1.48 1.64 1.70 1.74 1.67 1.45 1.37 1.38 1.27 1.17 1.15 1.14 1.10 1.14 1.13 1.07 1.09 1.17 1.24 1.22 1.20 1.25 1.35 1.49 1.71 2.08 2.17 1.76 1.63 1.33 1.27 1.11 1.46 1.78 1.61 1.41 1.32 1.31
2.14 1.96 1.72 1.57 1.65 1.55 1.61 1.83 1.92 1.64 1.41 1.38 1.43 1.36 1.27 1.32 1.33 1.37 1.31 1.28 1.34 1.43 1.47 1.53 1.46 1.40 1.48 1.55 1.72 1.92 2.15 1.98 1.74 1.92 1.71 1.29 1.21 1.59 1.85 1.91 1.68 1.45 1.36
2.61 2.41 2.12 1.92 1.74 1.77 1.76 1.80 2.09 1.85 1.60 1.69 1.89 1.87 1.92 2.26 2.11 2.15 1.71 1.67 1.82 1.98 2.07 2.10 2.05 1.92 1.83 1.77 2.00 2.19 2.05 1.91 2.13 2.29 1.96 1.41 1.50 2.00 2.18 2.26 2.07 1.85 1.70
2.65 2.36 2.22 2.18 1.87 1.83 1.92 2.31 2.76 2.36 2.18 2.26 2.53 2.46 2.78 2.83 2.67 2.00 2.00 2.28 2.47 2.79 2.93 2.94 2.95 2.60 2.24 2.07 2.30 2.32 2.06 2.16 2.41 2.10 1.76 1.49 1.69 2.17 2.48 2.53 2.31 2.04 1.97
2.52 2.41 2.18 2.44 2.18 2.23 2.56 2.64 2.81 2.86 2.72 2.70 2.78 2.76 3.02 2.72 2.39 2.27 2.64 3.01 3.24 3.35 3.51 3.55 3.45 2.91 2.86 3.07 3.04 2.76 2.63 2.50 2.51 2.22 1.78 1.70 1.91 2.31 2.63 2.68 2.46 2.27 2.12
2.46 2.42 2.46 2.60 2.66 2.83 2.84 2.74 2.62 2.41 2.39 2.53 2.69 2.65 2.81 2.91 2.90 2.86 3.09 3.23 3.48 3.82 4.19 4.07 4.07 3.74 3.67 3.43 3.19 3.20 2.99 2.61 2.77 2.84 2.32 2.02 2.18 2.60 2.84 2.83 2.66 2.53 2.52
3.03 2.93 3.01 3.22 3.19 3.12 3.11 2.85 2.42 2.26 2.13 2.16 2.29 2.39 2.33 2.68 2.99 3.01 2.90 2.99 2.94 3.15 3.57 4.15 4.08 4.22 4.12 3.71 3.24 3.11 3.16 2.97 2.87 2.83 2.42 2.40 2.63 2.72 2.82 2.86 2.86 2.81 2.80
3.98 3.80 3.67 3.82 3.43 3.20 3.12 2.86 2.62 2.30 2.29 2.18 2.11 2.03 2.19 2.46 2.79 2.76 2.74 3.00 3.01 2.92 3.08 3.56 3.70 4.10 4.05 3.68 3.12 2.86 2.83 2.86 2.68 2.66 2.51 2.48 2.58 2.47 2.56 2.94 3.27 3.39 3.28
5.10 4.72 4.17 3.93 3.64 3.44 3.27 2.93 2.59 2.42 2.24 2.36 2.32 2.12 2.14 2.25 2.50 2.50 2.61 2.66 2.69 2.57 2.67 2.90 3.09 3.36 3.30 3.16 3.05 2.86 2.72 2.63 2.43 2.49 2.56 2.48 2.24 2.35 2.50 2.73 3.07 3.31 3.49
5.89 5.34 4.64 3.91 3.98 3.91 3.69 3.09 2.64 2.45 2.38 2.35 2.23 2.03 1.88 2.00 1.99 2.11 2.18 2.17 2.21 2.06 2.17 2.54 2.59 2.84 3.01 3.03 3.12 2.86 2.63 2.70 2.49 2.48 2.44 2.50 2.56 2.24 2.55 2.67 2.80 2.94 3.30
6.01 5.86 5.26 5.11 4.90 4.26 3.60 3.03 2.64 2.44 2.39 2.18 2.09 2.01 1.89 1.78 1.85 2.00 2.14 2.21 1.90 1.90 1.99 1.82 2.28 2.54 2.74 2.78 2.38 2.50 2.25 2.31 2.29 2.00 2.07 2.03 2.27 2.33 2.52 2.44 2.60 2.67 3.04
4.98 4.89 4.85 5.01 4.61 4.00 3.39 2.96 2.72 2.48 2.22 2.05 1.98 2.02 1.98 1.89 1.94 2.26 2.06 1.96 1.78 2.06 2.30 2.35 2.66 2.59 2.47 2.50 2.08 2.17 2.01 1.85 1.92 1.84 1.76 1.82 1.89 1.82 2.21 2.46 2.53 2.22 2.56
3.48 3.59 3.89 4.12 3.88 3.44 3.06 2.61 2.46 2.40 2.18 1.99 1.90 1.76 1.92 1.88 2.12 2.43 2.21 2.47 2.12 2.11 2.26 2.28 2.48 2.41 2.15 2.08 2.49 2.57 2.03 1.59 1.62 1.54 1.54 1.74 1.70 1.77 2.15 2.47 2.63 2.61 2.40
2.70 3.00 3.33 3.57 3.39 2.86 2.64 2.48 2.38 2.34 2.16 2.15 2.07 2.07 1.87 1.87 2.08 2.12 2.45 2.26 2.26 2.34 2.38 2.47 2.57 2.52 2.22 2.15 2.57 2.93 2.55 2.46 2.15 1.43 1.52 1.65 1.66 1.90 1.97 1.99 2.26 2.66 2.53
2.55 2.77 2.67 2.89 3.03 2.76 2.64 2.57 2.50 2.47 2.27 2.34 2.31 2.22 1.86 1.74 1.77 1.94 2.10 2.11 2.33 2.12 2.45 2.68 2.61 2.67 2.62 2.39 2.43 2.84 2.86 2.76 2.31 1.80 1.45 1.46 1.65 2.01 2.02 2.04 1.95 2.25 2.52
1.87 2.14 2.46 2.77 2.85 2.74 2.59 2.37 2.25 2.06 1.99 2.02 2.06 2.08 1.96 1.85 1.72 1.81 1.94 2.22 2.38 2.11 2.60 2.24 2.35 2.58 2.74 2.52 2.42 2.26 2.34 2.56 2.66 2.45 1.97 1.56 1.54 1.74 1.93 1.82 1.82 2.14 2.43
1.32 1.69 2.21 2.67 2.91 2.73 2.43 2.26 2.31 2.13 2.08 2.06 1.98 2.20 2.06 1.91 1.75 1.66 1.91 2.19 2.31 2.20 2.35 2.40 2.67 2.54 2.47 2.44 2.47 2.47 2.55 2.52 2.33 2.50 2.43 2.12 1.85 1.44 1.38 1.52 1.68 1.88 2.12
1.10 1.35 1.75 2.12 2.38 2.44 2.31 2.21 2.27 2.31 2.27 2.13 1.96 1.97 1.82 1.79 1.74 1.67 1.90 2.19 2.17 2.21 2.38 2.37 2.50 2.49 2.52 2.59 2.42 2.33 2.53 2.50 2.43 2.51 2.24 2.05 1.97 1.44 1.24 1.27 1.40 1.72 1.92